Total_Precipitation_Accumulation
0.77 0.95 1.22 1.55 1.77 1.89 2.13 2.27 2.48 2.64 2.69 2.58 2.24 1.87 1.64 1.58 1.52 1.37 1.23 1.14 1.09 1.07 1.06 1.04 0.95 0.87 0.79 0.71 0.66 0.64 0.65 0.69 0.74 0.74 0.62 0.50 0.42 0.34 0.27 0.24 0.21 0.18 0.16
0.59 0.75 1.06 1.25 1.46 1.65 1.80 2.05 2.14 2.36 2.41 2.34 2.27 2.08 1.97 1.87 1.76 1.65 1.45 1.31 1.25 1.16 1.09 1.04 1.03 0.95 0.88 0.87 0.88 0.85 0.78 0.73 0.78 0.85 0.83 0.68 0.55 0.41 0.31 0.26 0.24 0.23 0.24
0.48 0.61 0.84 1.05 1.16 1.36 1.63 1.76 1.84 2.06 2.27 2.34 2.45 2.52 2.46 2.15 1.89 1.72 1.63 1.50 1.43 1.33 1.21 1.12 1.11 1.08 0.97 0.91 0.95 1.00 1.01 1.00 0.99 0.97 1.09 0.99 0.73 0.54 0.39 0.32 0.29 0.27 0.30
0.43 0.50 0.59 0.76 0.89 1.03 1.36 1.69 1.84 1.97 2.15 2.41 2.40 2.33 2.20 1.99 1.73 1.71 1.76 1.72 1.61 1.51 1.36 1.28 1.22 1.20 1.16 1.08 1.10 1.12 1.17 1.22 1.20 1.15 1.09 1.05 0.91 0.85 0.64 0.41 0.33 0.31 0.29
0.48 0.47 0.50 0.62 0.75 0.87 1.11 1.40 1.66 1.91 2.11 2.22 2.26 2.30 2.15 1.96 1.91 1.83 1.80 1.70 1.59 1.54 1.46 1.41 1.38 1.35 1.32 1.31 1.35 1.34 1.33 1.32 1.32 1.27 1.23 1.22 1.11 1.00 0.95 0.70 0.50 0.46 0.40
0.49 0.47 0.47 0.56 0.68 0.75 0.90 1.15 1.41 1.56 1.77 1.99 2.08 2.11 2.10 2.09 2.04 1.85 1.76 1.76 1.72 1.64 1.54 1.52 1.52 1.53 1.51 1.47 1.45 1.47 1.50 1.50 1.46 1.44 1.36 1.30 1.25 1.12 1.13 1.03 0.78 0.70 0.61
0.41 0.41 0.44 0.50 0.61 0.70 0.79 0.91 1.07 1.20 1.34 1.52 1.68 1.77 1.88 1.98 1.91 1.80 1.66 1.64 1.61 1.56 1.51 1.48 1.52 1.58 1.57 1.57 1.58 1.58 1.54 1.57 1.59 1.56 1.52 1.43 1.33 1.26 1.31 1.34 1.15 0.96 0.78
0.41 0.39 0.38 0.43 0.52 0.58 0.67 0.75 0.84 0.94 1.09 1.21 1.33 1.48 1.62 1.80 1.80 1.77 1.61 1.48 1.43 1.43 1.50 1.43 1.37 1.40 1.47 1.51 1.53 1.53 1.50 1.49 1.48 1.45 1.46 1.45 1.36 1.36 1.40 1.49 1.61 1.51 1.20
0.41 0.38 0.37 0.38 0.46 0.50 0.54 0.64 0.76 0.83 0.91 1.04 1.18 1.29 1.38 1.48 1.55 1.62 1.63 1.48 1.40 1.39 1.40 1.34 1.27 1.20 1.21 1.30 1.38 1.39 1.39 1.39 1.39 1.37 1.37 1.40 1.37 1.39 1.43 1.54 1.74 1.95 1.77
0.40 0.37 0.38 0.42 0.46 0.47 0.48 0.56 0.71 0.75 0.78 0.86 0.96 1.06 1.16 1.30 1.39 1.42 1.42 1.38 1.34 1.35 1.33 1.26 1.17 1.11 1.08 1.07 1.14 1.17 1.17 1.21 1.20 1.23 1.26 1.26 1.24 1.30 1.37 1.44 1.53 1.70 1.81
0.41 0.40 0.44 0.51 0.53 0.48 0.50 0.56 0.63 0.74 0.79 0.80 0.85 0.90 0.91 0.99 1.15 1.25 1.27 1.28 1.26 1.24 1.24 1.20 1.14 1.09 1.02 0.98 0.96 0.95 0.99 1.05 1.06 1.09 1.11 1.09 1.07 1.14 1.17 1.24 1.32 1.41 1.53
0.37 0.42 0.49 0.52 0.53 0.54 0.57 0.60 0.63 0.69 0.79 0.80 0.81 0.85 0.87 0.87 0.96 1.06 1.15 1.22 1.28 1.22 1.19 1.16 1.12 1.06 1.01 0.97 0.95 0.90 0.89 0.93 0.97 0.99 1.04 1.04 1.01 1.02 1.06 1.12 1.13 1.14 1.19
0.35 0.36 0.43 0.49 0.50 0.54 0.63 0.67 0.70 0.71 0.71 0.74 0.74 0.75 0.75 0.76 0.82 0.88 0.98 1.05 1.14 1.14 1.11 1.12 1.07 0.99 0.95 0.94 0.92 0.87 0.86 0.88 0.87 0.89 0.97 1.02 1.05 1.06 1.06 1.08 1.07 1.06 1.09
0.33 0.35 0.40 0.44 0.47 0.52 0.57 0.57 0.65 0.67 0.67 0.66 0.71 0.72 0.68 0.68 0.75 0.84 0.88 0.92 0.97 1.04 1.03 1.06 1.10 1.09 1.03 1.00 0.97 0.93 0.89 0.90 0.90 0.89 0.93 0.98 1.01 0.99 0.96 0.99 0.98 1.00 1.06
0.30 0.34 0.37 0.40 0.43 0.41 0.41 0.44 0.50 0.57 0.59 0.60 0.67 0.71 0.72 0.76 0.86 0.90 0.86 0.86 0.88 0.94 0.98 0.99 1.04 1.08 1.08 1.06 1.05 1.02 1.01 1.02 1.04 1.00 0.97 0.95 0.99 0.98 0.95 0.96 0.96 0.99 1.07
0.24 0.25 0.30 0.36 0.39 0.37 0.37 0.37 0.40 0.45 0.47 0.48 0.53 0.60 0.67 0.76 0.86 0.93 0.91 0.87 0.85 0.90 0.97 0.96 1.02 1.09 1.12 1.25 1.23 1.14 1.10 1.09 1.05 1.00 0.92 0.88 0.92 0.91 0.94 0.96 0.96 1.03 1.14
0.18 0.19 0.22 0.28 0.29 0.29 0.31 0.34 0.36 0.39 0.42 0.41 0.43 0.49 0.62 0.72 0.78 0.84 0.88 0.89 0.90 0.99 1.09 1.09 1.10 1.17 1.28 1.35 1.18 1.12 1.03 1.02 0.97 0.90 0.84 0.80 0.78 0.82 0.76 0.82 0.89 0.93 1.04
0.14 0.15 0.18 0.21 0.21 0.22 0.24 0.26 0.27 0.33 0.42 0.45 0.47 0.51 0.57 0.67 0.78 0.82 0.88 0.93 0.96 1.04 1.13 1.18 1.20 1.22 1.26 1.28 1.17 1.08 0.92 0.88 0.84 0.79 0.74 0.73 0.71 0.72 0.78 0.85 0.91 0.85 0.81
0.14 0.14 0.16 0.17 0.16 0.18 0.21 0.21 0.22 0.28 0.36 0.43 0.47 0.48 0.52 0.62 0.74 0.84 0.91 0.96 1.00 1.05 1.11 1.10 1.07 1.05 1.06 1.06 0.98 0.97 0.87 0.85 0.78 0.72 0.71 0.72 0.69 0.77 0.92 0.96 0.98 0.84 0.72
0.17 0.17 0.16 0.16 0.16 0.18 0.20 0.23 0.25 0.29 0.37 0.40 0.45 0.47 0.50 0.58 0.68 0.78 0.87 0.92 0.94 0.94 0.94 0.93 0.88 0.86 0.87 0.94 0.86 0.85 0.84 0.84 0.77 0.72 0.71 0.78 0.76 0.86 0.98 0.93 0.93 0.86 0.71
0.17 0.22 0.24 0.25 0.26 0.28 0.29 0.30 0.31 0.34 0.38 0.41 0.46 0.49 0.51 0.57 0.65 0.70 0.73 0.76 0.74 0.72 0.71 0.70 0.68 0.67 0.70 0.77 0.75 0.76 0.78 0.79 0.80 0.79 0.72 0.72 0.88 0.96 1.00 0.91 0.76 0.77 0.84
0.17 0.22 0.27 0.29 0.32 0.33 0.35 0.36 0.38 0.40 0.40 0.42 0.47 0.51 0.53 0.52 0.53 0.55 0.58 0.57 0.56 0.56 0.55 0.56 0.56 0.58 0.61 0.66 0.70 0.74 0.79 0.84 0.78 0.74 0.68 0.70 0.87 0.87 0.83 0.77 0.78 0.86 0.81
0.16 0.19 0.23 0.24 0.25 0.30 0.36 0.40 0.41 0.40 0.39 0.41 0.43 0.43 0.44 0.43 0.44 0.44 0.45 0.47 0.49 0.50 0.52 0.52 0.53 0.54 0.56 0.59 0.68 0.70 0.77 0.82 0.75 0.71 0.76 0.81 0.81 0.75 0.70 0.73 0.77 0.74 0.70
0.13 0.14 0.16 0.18 0.19 0.21 0.25 0.30 0.32 0.32 0.30 0.32 0.32 0.32 0.32 0.34 0.35 0.36 0.38 0.41 0.43 0.44 0.45 0.47 0.47 0.47 0.49 0.49 0.54 0.62 0.67 0.72 0.71 0.74 0.76 0.73 0.70 0.68 0.69 0.74 0.71 0.65 0.70
0.14 0.12 0.12 0.12 0.13 0.14 0.16 0.20 0.22 0.23 0.23 0.24 0.23 0.23 0.24 0.30 0.34 0.34 0.36 0.39 0.41 0.46 0.47 0.45 0.44 0.46 0.47 0.49 0.62 0.67 0.64 0.70 0.74 0.73 0.64 0.60 0.61 0.63 0.62 0.62 0.65 0.67 0.71
0.15 0.12 0.11 0.12 0.12 0.13 0.13 0.14 0.18 0.21 0.23 0.22 0.22 0.22 0.21 0.25 0.32 0.36 0.37 0.41 0.44 0.49 0.53 0.52 0.48 0.45 0.49 0.54 0.59 0.63 0.68 0.74 0.75 0.67 0.60 0.57 0.57 0.58 0.60 0.60 0.62 0.66 0.71